星链-1122 (STARLINK-1122 )

导读

STARLINK-1122是美国SpaceX星链(Starlink)计划中的卫星,于2020年1月7日发射,归属于美国。星链计划旨在搭建全球卫星互联网通信系统,该卫星入轨后,承担着为全球提供宽带互联网接入服务的任务,也推进了星链低轨卫星星座的组网进程,补充了星座的空间通信基础设施布局。

Basic Information
目录编号:
44949
目录名称:
STARLINK-1122
国际标识:
2020-001AM
轨道中心:
EARTH
卫星名称:
星链-1122
卫星全名:
星链-1122 (STARLINK-1122 )
卫星状态:
在轨 (已飞行2442 天)
发射日期:
2020-01-07 UTC
国别 :
美国 (US)
星等 :
--
This satellite is enrolled in the Space Conjunction Data Service (SCDS) and the current flight risk assessment level is: No High Risk
Orbit Information
数据来源 国际轨道数据 AOE轨道数据
星历时间 2026-09-13T07:11:59+0800
1天前
查看轨道信息
2026-09-10T23:00:00+0800
3天前
查看轨道信息
半长轴 6748.433km 6749.012km
偏心率 0.0002774 0.0003028
轨道倾角 53.148° 53.148°
近地点辐角 81.868° 71.450°
升交点赤经 141.709° 153.194°
平近点角 278.265° 40.264°
近地点 368.423km 368.831km
远地点 372.169km 372.919km
周期 91.953分钟 91.964分钟
每日圈数 15.66024 15.658226
Detailed Information
固有亮度:
5
最大亮度:
2.5
卫星平台:
Starlink V1.0
覆盖范围:
全球
运营商:
太空探索技术公司
运营商所在国:
美国
制造商(研发单位):
太空探索技术公司
制造商所在国:
美国
使用方式:
暂无
Satellite Introduction
星链(Starlink)计划是由太空探索技术公司(SpaceX)提出的一个巨型低轨卫星互联网星座项目,计划在2019年至2024年间在太空搭建由约1.2万颗卫星组成的“星链”网络,其中1584颗将部署在地球上空550千米处的近地轨道,并从2020年开始工作。该卫星仍在工作。
2D Orbit Map
3D Orbit Map
Orbit Altitude Analysis Chart
Orbit Inclination Analysis Chart
Orbit Comprehensive Analysis Chart
View Comprehensive Chart
Miss Distance Evolution Trend with All Objects
Collision Probability Evolution Trend with All Objects